Location: *
(40.9167°N, 9.5000°E)
Time: 21:23:35
(UTC+00:00)

COSMOS 2455 - Pass Details

Date: 09 April 2020
Orbit: 900 x 910 km, 67.1° (Epoch: 31 May)

Event Time Altitude Azimuth Distance (km) Brightness Sun altitude
Rises 18:17:31 0° 338° (NNW) 3,544 6.5 -4.8°
Reaches altitude 10° 18:20:29 10° 351° (N) 2,600 5.6 -5.4°
Maximum altitude 18:25:28 26° 47° (NE) 1,712 4.1 -6.3°
Drops below altitude 10° 18:30:25 10° 103° (ESE) 2,593 4.5 -7.2°
Enters shadow 18:30:50 - 105° (ESE) 2,713 4.6 -7.3°
